Richmond, VA

8:50 AM EST on December 06, 2019 (GMT -0500)
Richmond International

Weather History for KRIC - October, 2019

Change the Weather History Date:

Monday, October 28, 2019

  Actual Average Record
Temperature  
Mean Temperature 62 °F 56 °F  
Max Temperature 71 °F 68 °F 87 °F (1919)
Min Temperature 52 °F 44 °F 25 °F (1976)
Degree Days  
Heating Degree Days 4 9  
Month to date heating degree days 102 174  
Since 1 July heating degree days 102 203  
Cooling Degree Days 0 0  
Month to date cooling degree days 77 40  
Year to date cooling degree days 2047 1544  
Growing Degree Days 12 (Base 50)    
Moisture  
Dew Point 51 °F    
Average Humidity 71    
Maximum Humidity 89    
Minimum Humidity 53    
Precipitation  
Precipitation 0.00 in 0.10 in 1.82 in (1949)
Month to date precipitation 3.89 2.67  
Year to date precipitation 37.04 36.79  
Snow  
Snow 0.00 in 0.00 in 0.00 in (2002)
Month to date snowfall 0.0 0.0  
Since 1 July snowfall 0.0 0.0  
Snow Depth 0.00 in    
Sea Level Pressure  
Sea Level Pressure 30.15 in    
Wind  
Wind Speed 7 mph ()    
Max Wind Speed 17 mph    
Max Gust Speed 21 mph    
Visibility 10.0 miles    
Events      
T = Trace of Precipitation, MM = Missing Value Source: Averaged Metar Reports

Daily Weather History Graph

Daily Weather History Graph

Search for Another Location

Airport or City:

Astronomy

Oct. 28, 2019 Rise Set
Actual Time 7:29 AM EDT 6:15 PM EDT
Civil Twilight 7:02 AM EDT 6:42 PM EDT
Nautical Twilight 6:32 AM EDT 7:13 PM EDT
Astronomical Twilight 6:01 AM EDT 7:43 PM EDT
Moon 7:49 AM EDT (10/28) 6:59 PM EDT (10/28)
Length of Visible Light 11h 39m
Length of Day
10h 45m
New Moon, 0% of the Moon is Illuminated
Oct 28
New Moon
Nov 4
First Quarter
Nov 12
Full
Nov 19
Last Quarter
Nov 26
New

Hourly Weather History & Observations

Time (EDT) Temp. Dew Point Humidity Pressure Visibility Wind Dir Wind Speed Gust Speed Precip Events Conditions
12:54 AM 60.1 °F 52.0 °F 75% 30.01 in 10.0 mi North 5.8 mph - N/A   Clear
1:54 AM 57.0 °F 51.1 °F 81% 30.01 in 10.0 mi NNE 8.1 mph - N/A   Clear
2:54 AM 57.0 °F 50.0 °F 77% 30.02 in 10.0 mi North 8.1 mph - N/A   Clear
3:54 AM 59.0 °F 48.9 °F 69% 30.03 in 10.0 mi North 12.7 mph - N/A   Clear
4:54 AM 57.9 °F 48.9 °F 72% 30.06 in 10.0 mi NNE 11.5 mph - N/A   Clear
5:54 AM 55.9 °F 48.9 °F 77% 30.09 in 10.0 mi NNE 8.1 mph - N/A   Clear
6:54 AM 55.9 °F 48.9 °F 77% 30.11 in 10.0 mi NNE 10.4 mph - N/A   Clear
7:54 AM 55.9 °F 48.9 °F 77% 30.15 in 10.0 mi NE 9.2 mph - N/A   Partly Cloudy
8:54 AM 59.0 °F 50.0 °F 72% 30.18 in 10.0 mi NNE 8.1 mph - N/A   Partly Cloudy
9:54 AM 62.1 °F 50.0 °F 65% 30.20 in 10.0 mi ENE 12.7 mph - N/A   Partly Cloudy
10:54 AM 64.0 °F 50.0 °F 60% 30.21 in 10.0 mi ENE 10.4 mph - N/A   Partly Cloudy
11:54 AM 66.0 °F 51.1 °F 59% 30.21 in 10.0 mi East 6.9 mph - N/A   Partly Cloudy
12:54 PM 68.0 °F 52.0 °F 56% 30.20 in 10.0 mi East 8.1 mph - N/A   Partly Cloudy
1:54 PM 70.0 °F 52.0 °F 53% 30.17 in 10.0 mi NE 5.8 mph - N/A   Partly Cloudy
2:54 PM 70.0 °F 52.0 °F 53% 30.17 in 10.0 mi Calm Calm - N/A   Mostly Cloudy
3:54 PM 70.0 °F 52.0 °F 53% 30.16 in 10.0 mi East 6.9 mph - N/A   Mostly Cloudy
4:54 PM 69.1 °F 52.0 °F 54% 30.16 in 10.0 mi East 9.2 mph - N/A   Mostly Cloudy
5:54 PM 64.9 °F 52.0 °F 63% 30.17 in 10.0 mi East 5.8 mph - N/A   Mostly Cloudy
6:54 PM 60.1 °F 52.0 °F 75% 30.19 in 10.0 mi ESE 4.6 mph - N/A   Mostly Cloudy
7:54 PM 57.9 °F 53.1 °F 84% 30.20 in 10.0 mi SE 6.9 mph - N/A   Mostly Cloudy
8:54 PM 55.9 °F 52.0 °F 87% 30.20 in 10.0 mi ESE 4.6 mph - N/A   Scattered Clouds
9:54 PM 55.9 °F 52.0 °F 87% 30.22 in 10.0 mi Calm Calm - N/A   Scattered Clouds
10:54 PM 53.1 °F 50.0 °F 89% 30.23 in 10.0 mi Calm Calm - N/A   Partly Cloudy
11:54 PM 52.0 °F 48.9 °F 89% 30.23 in 10.0 mi Calm Calm - N/A   Scattered Clouds